Weather Roundup
Issued by NWS Chicago, IL

Home | Current Version | Previous Version | Text Only | Print | Product List | Glossary On
Versions: 1 2 3 4 5 6 7 8 9 10 11 12 13 14 15 16 17 18 19 20 21 22 23 24 25 26 27 28 29 30 31 32 33 34 35 36 37 38 39 40 41 42 43 44 45 46 47 48 49 50
000
NZUS59 KLOT 291009
HRRLOT

CHICAGO AREA WEATHER ROUNDUP
NATIONAL WEATHER SERVICE CHICAGO/ROMEOVILLE IL
500 AM CDT FRI JUL 29 2016

NOTE: "FAIR" INDICATES FEW OR NO CLOUDS BELOW 12,000 FEET WITH NO
SIGNIFICANT WEATHER AND/OR OBSTRUCTIONS TO VISIBILITY.

* THESE STATIONS ARE NOT UNDER NWS QUALITY CONTROL. THEY ALSO MAY NOT
  REPORT WEATHER SUCH AS PRECIPITATION OR FOG.

ILZ005-006-012>014-019>023-291100-
NORTHEAST ILLINOIS

CITY           SKY/WX    TMP DP  RH WIND       PRES   REMARKS
OHARE          MOCLDY    70  68  93 N3        29.91S
MIDWAY         MOCLDY    71  68  90 NW3       29.91R
AURORA         CLOUDY    71  69  93 NE5       29.92S FOG
LANSING*       CLEAR     68  66  92 CALM      29.91S
JOLIET*        CLOUDY    73  71  95 CALM      29.91S FOG
WAUKEGAN       CLOUDY    69  68  96 N3        29.92S
DUPAGE AIRPORT CLOUDY    70  68  93 NE6       29.92S FOG
WHEELING       PTCLDY    70  68  93 N6        29.93R
KANKAKEE*      CLOUDY    68  67  97 CALM      29.91S FOG
MORRIS*        FOG       71  70  97 CALM      29.90S VSB 1
LEWIS AIRPORT* CLOUDY    70  69  97 NE3       29.92R FOG
NORTHERLY ISL    N/A     73  69  87 E5          N/A
$$

WIZ051-052-058>065-066-070>072-291100-
SOUTHEAST WISCONSIN

CITY           SKY/WX    TMP DP  RH WIND       PRES   REMARKS
MILWAUKEE      CLOUDY    68  65  90 NE9       29.94S
KENOSHA*       CLOUDY    68  66  93 N7        29.94R
RACINE*        CLOUDY    68  65  90 N7        29.95S
BURLINGTON     CLOUDY    67  65  93 N3        29.94S
WAUKESHA       CLOUDY    64  63  94 NE5       29.97R
WEST BEND      CLOUDY    63  61  94 NE8       29.98R
$$

INZ001>003-010>013-019-020-291100-
NORTHWEST INDIANA

CITY           SKY/WX    TMP DP  RH WIND       PRES   REMARKS
GARY*          PTCLDY    68  68 100 CALM      29.91S
MICHIGAN CITY* NOT AVBL
RENSSELAER*    NOT AVBL
VALPARAISO     CLEAR     66  64  93 CALM      29.92R
$$

LMZ740>746-291100-
SOUTHERN LAKE MICHIGAN

STATION/POSITION TIME  SKY/WX   TEMP WIND        PRES    VSBY
                                AIR  DIR/SP/G
                 (UTC)          (F)  (DEG/KT/KT) (MB)    (MI)
HARRISON CRIB    0900            75   60/  8/  9   N/A
BURNHAM HARBOR   1000            73   40/  4/  7   N/A
CALUMET HARBOR   0900            73   30/  2/  4 1012.1F
BURNS HARBOR     0903            73   60/  8/ 12 1013.2S
MICHIGAN CITY    0900            72   50/  4/  5   N/A
$$

ABBREVIATIONS USED IN REMARKS
   TC - TEMPERATURE IN CELSIUS
  WCI - WIND CHILL INDEX
   HX - HEAT INDEX
  VSB - VISIBILITY
$$



USA.gov is the U.S. government's official web portal to all federal, state and local government web resources and services.